Time,TemperatureF,DewpointF,PressureIn,WindDirection,WindDirectionDegrees,WindSpeedMPH,WindSpeedGustMPH,Humidity,HourlyPrecipIn,Conditions,Clouds,dailyrainin,SoftwareType,DateUTC
2013-09-18 00:00:00,50.3,46.0,29.46,WSW,242,7.0,8.0,85,0.00,,,0.00,Wunderground v.1.15,2013-09-18 04:00:00,
2013-09-18 00:04:00,50.3,46.0,29.46,WSW,237,6.0,8.0,85,0.00,,,0.00,Wunderground v.1.15,2013-09-18 04:04:00,
2013-09-18 00:09:00,50.3,46.0,29.46,SW,224,7.0,7.0,85,0.00,,,0.00,Wunderground v.1.15,2013-09-18 04:09:00,
2013-09-18 00:14:00,50.2,45.9,29.46,SW,219,7.0,7.0,85,0.00,,,0.00,Wunderground v.1.15,2013-09-18 04:14:00,
2013-09-18 00:19:00,50.1,45.8,29.46,SW,234,7.0,7.0,85,0.00,,,0.00,Wunderground v.1.15,2013-09-18 04:19:00,
2013-09-18 00:24:00,49.9,45.6,29.45,SW,227,7.0,8.0,85,0.00,,,0.00,Wunderground v.1.15,2013-09-18 04:24:00,
2013-09-18 00:29:00,49.9,45.6,29.45,SW,232,8.0,8.0,85,0.00,,,0.00,Wunderground v.1.15,2013-09-18 04:29:00,
2013-09-18 00:34:00,49.8,45.5,29.45,SW,234,8.0,8.0,85,0.00,,,0.00,Wunderground v.1.15,2013-09-18 04:34:00,
2013-09-18 00:39:00,49.7,45.4,29.45,WSW,241,8.0,8.0,85,0.00,,,0.00,Wunderground v.1.15,2013-09-18 04:39:00,
2013-09-18 00:49:00,50.0,45.4,29.45,WSW,250,8.0,8.0,84,0.00,,,0.00,Wunderground v.1.15,2013-09-18 04:49:00,
2013-09-18 00:54:00,50.1,45.5,29.44,SW,235,8.0,8.0,84,0.00,,,0.00,Wunderground v.1.15,2013-09-18 04:54:00,
2013-09-18 00:59:00,50.2,45.2,29.44,WSW,254,7.0,9.0,83,0.00,,,0.00,Wunderground v.1.15,2013-09-18 04:59:00,
2013-09-18 01:04:00,50.2,45.2,29.44,WSW,250,8.0,10.0,83,0.00,,,0.00,Wunderground v.1.15,2013-09-18 05:04:00,
2013-09-18 01:09:00,50.2,45.2,29.44,WSW,248,7.0,10.0,83,0.00,,,0.00,Wunderground v.1.15,2013-09-18 05:09:00,
2013-09-18 01:15:00,50.1,45.1,29.44,WSW,241,7.0,10.0,83,0.00,,,0.00,Wunderground v.1.15,2013-09-18 05:15:00,
2013-09-18 01:24:00,49.9,44.9,29.44,SW,234,7.0,10.0,83,0.00,,,0.00,Wunderground v.1.15,2013-09-18 05:24:00,
2013-09-18 01:29:00,49.9,44.9,29.44,WSW,248,7.0,7.0,83,0.00,,,0.01,Wunderground v.1.15,2013-09-18 05:29:00,
2013-09-18 01:34:00,49.9,44.9,29.44,WSW,248,7.0,9.0,83,0.00,,,0.01,Wunderground v.1.15,2013-09-18 05:34:00,
2013-09-18 01:39:00,49.9,44.9,29.44,WSW,253,7.0,10.0,83,0.00,,,0.01,Wunderground v.1.15,2013-09-18 05:39:00,
2013-09-18 01:44:00,49.7,44.7,29.44,West,279,8.0,10.0,83,0.00,,,0.01,Wunderground v.1.15,2013-09-18 05:44:00,
2013-09-18 01:54:00,49.7,44.7,29.44,WSW,255,8.0,10.0,83,0.00,,,0.01,Wunderground v.1.15,2013-09-18 05:54:00,
2013-09-18 01:59:00,49.6,44.6,29.44,West,265,8.0,8.0,83,0.00,,,0.01,Wunderground v.1.15,2013-09-18 05:59:00,
2013-09-18 02:04:00,49.4,44.5,29.44,West,266,7.0,10.0,83,0.00,,,0.01,Wunderground v.1.15,2013-09-18 06:04:00,
2013-09-18 02:09:00,49.1,44.5,29.43,West,273,7.0,10.0,84,0.00,,,0.01,Wunderground v.1.15,2013-09-18 06:09:00,
2013-09-18 02:14:00,48.9,44.3,29.43,West,268,7.0,10.0,84,0.00,,,0.01,Wunderground v.1.15,2013-09-18 06:14:00,
2013-09-18 02:24:00,48.8,44.5,29.43,West,265,6.0,10.0,85,0.00,,,0.01,Wunderground v.1.15,2013-09-18 06:24:00,
2013-09-18 02:29:00,48.7,44.4,29.43,West,264,6.0,10.0,85,0.00,,,0.01,Wunderground v.1.15,2013-09-18 06:29:00,
2013-09-18 02:34:00,48.6,44.3,29.43,West,270,6.0,10.0,85,0.00,,,0.01,Wunderground v.1.15,2013-09-18 06:34:00,
2013-09-18 02:39:00,48.5,44.2,29.43,WSW,252,7.0,7.0,85,0.00,,,0.01,Wunderground v.1.15,2013-09-18 06:39:00,
2013-09-18 02:44:00,48.5,44.2,29.43,West,263,7.0,10.0,85,0.00,,,0.01,Wunderground v.1.15,2013-09-18 06:44:00,
2013-09-18 02:49:00,48.6,44.3,29.43,WSW,248,7.0,10.0,85,0.00,,,0.01,Wunderground v.1.15,2013-09-18 06:49:00,
2013-09-18 02:55:00,48.5,44.2,29.43,WSW,251,7.0,10.0,85,0.00,,,0.01,Wunderground v.1.15,2013-09-18 06:55:00,
2013-09-18 03:04:00,48.2,43.9,29.43,West,261,9.0,10.0,85,0.00,,,0.01,Wunderground v.1.15,2013-09-18 07:04:00,
2013-09-18 03:10:00,48.3,44.0,29.43,WSW,254,10.0,10.0,85,0.00,,,0.01,Wunderground v.1.15,2013-09-18 07:10:00,
2013-09-18 03:19:00,48.2,45.1,29.43,West,263,8.0,8.0,89,0.00,,,0.01,Wunderground v.1.15,2013-09-18 07:19:00,
2013-09-18 03:24:00,48.1,43.8,29.43,WSW,258,8.0,10.0,85,0.00,,,0.01,Wunderground v.1.15,2013-09-18 07:24:00,
2013-09-18 03:30:00,48.1,43.8,29.43,WSW,239,8.0,8.0,85,0.00,,,0.01,Wunderground v.1.15,2013-09-18 07:30:00,
2013-09-18 03:35:00,47.9,43.6,29.43,WSW,250,6.0,10.0,85,0.00,,,0.01,Wunderground v.1.15,2013-09-18 07:35:00,
2013-09-18 03:40:00,47.7,43.7,29.43,WSW,255,5.0,10.0,86,0.00,,,0.01,Wunderground v.1.15,2013-09-18 07:40:00,
2013-09-18 03:45:00,47.5,43.5,29.43,West,275,6.0,10.0,86,0.00,,,0.01,Wunderground v.1.15,2013-09-18 07:45:00,
2013-09-18 03:50:00,47.4,43.4,29.43,SW,225,6.0,6.0,86,0.00,,,0.01,Wunderground v.1.15,2013-09-18 07:50:00,
2013-09-18 03:55:00,47.4,43.4,29.42,WSW,239,4.0,10.0,86,0.00,,,0.01,Wunderground v.1.15,2013-09-18 07:55:00,
2013-09-18 04:05:00,47.4,43.4,29.42,WSW,242,2.0,10.0,86,0.00,,,0.01,Wunderground v.1.15,2013-09-18 08:05:00,
2013-09-18 04:10:00,47.4,43.4,29.42,West,262,3.0,10.0,86,0.00,,,0.01,Wunderground v.1.15,2013-09-18 08:10:00,
2013-09-18 04:15:00,47.2,43.2,29.42,WSW,246,2.0,10.0,86,0.00,,,0.01,Wunderground v.1.15,2013-09-18 08:15:00,
2013-09-18 04:20:00,47.0,43.0,29.42,WSW,252,3.0,3.0,86,0.00,,,0.01,Wunderground v.1.15,2013-09-18 08:20:00,
2013-09-18 04:25:00,47.0,43.3,29.43,West,273,2.0,10.0,87,0.00,,,0.01,Wunderground v.1.15,2013-09-18 08:25:00,
2013-09-18 04:35:00,47.0,43.0,29.42,WSW,238,2.0,10.0,86,0.00,,,0.01,Wunderground v.1.15,2013-09-18 08:35:00,
2013-09-18 04:40:00,47.1,43.1,29.42,WSW,238,3.0,10.0,86,0.00,,,0.01,Wunderground v.1.15,2013-09-18 08:40:00,
2013-09-18 04:45:00,47.1,43.1,29.42,WSW,250,3.0,10.0,86,0.00,,,0.01,Wunderground v.1.15,2013-09-18 08:45:00,
2013-09-18 04:50:00,47.1,43.1,29.43,West,279,1.0,1.0,86,0.00,,,0.01,Wunderground v.1.15,2013-09-18 08:50:00,
2013-09-18 04:55:00,47.0,43.0,29.43,West,268,0.0,10.0,86,0.00,,,0.01,Wunderground v.1.15,2013-09-18 08:55:00,
2013-09-18 05:00:00,46.9,42.9,29.43,WSW,242,0.0,10.0,86,0.00,,,0.01,Wunderground v.1.15,2013-09-18 09:00:00,
2013-09-18 05:09:00,46.8,42.8,29.43,West,272,1.0,1.0,86,0.00,,,0.01,Wunderground v.1.15,2013-09-18 09:09:00,
2013-09-18 05:14:00,46.7,42.7,29.43,West,264,0.0,10.0,86,0.00,,,0.01,Wunderground v.1.15,2013-09-18 09:14:00,
2013-09-18 05:19:00,46.7,42.7,29.42,WSW,242,1.0,10.0,86,0.00,,,0.01,Wunderground v.1.15,2013-09-18 09:19:00,
2013-09-18 05:24:00,46.8,42.5,29.42,WSW,247,3.0,10.0,85,0.00,,,0.01,Wunderground v.1.15,2013-09-18 09:24:00,
2013-09-18 05:29:00,47.0,42.7,29.43,West,266,2.0,10.0,85,0.00,,,0.01,Wunderground v.1.15,2013-09-18 09:29:00,
2013-09-18 05:39:00,47.1,42.8,29.43,West,273,1.0,1.0,85,0.00,,,0.01,Wunderground v.1.15,2013-09-18 09:39:00,
2013-09-18 05:44:00,47.1,42.8,29.42,West,263,1.0,10.0,85,0.00,,,0.01,Wunderground v.1.15,2013-09-18 09:44:00,
2013-09-18 05:49:00,47.0,42.7,29.43,WSW,251,1.0,1.0,85,0.00,,,0.01,Wunderground v.1.15,2013-09-18 09:49:00,
2013-09-18 05:54:00,47.1,42.5,29.43,SW,234,3.0,3.0,84,0.00,,,0.01,Wunderground v.1.15,2013-09-18 09:54:00,
2013-09-18 05:59:00,47.2,42.6,29.43,WNW,288,3.0,3.0,84,0.00,,,0.01,Wunderground v.1.15,2013-09-18 09:59:00,
2013-09-18 06:04:00,47.2,42.6,29.43,West,281,2.0,10.0,84,0.00,,,0.01,Wunderground v.1.15,2013-09-18 10:04:00,
2013-09-18 06:14:00,46.8,42.5,29.43,WSW,252,1.0,10.0,85,0.00,,,0.01,Wunderground v.1.15,2013-09-18 10:14:00,
2013-09-18 06:19:00,46.9,42.3,29.43,WSW,244,3.0,10.0,84,0.00,,,0.01,Wunderground v.1.15,2013-09-18 10:19:00,
2013-09-18 06:24:00,47.0,42.4,29.43,WSW,246,4.0,10.0,84,0.00,,,0.01,Wunderground v.1.15,2013-09-18 10:24:00,
2013-09-18 06:29:00,47.2,42.6,29.42,WSW,257,2.0,10.0,84,0.00,,,0.01,Wunderground v.1.15,2013-09-18 10:29:00,
2013-09-18 06:34:00,47.4,42.5,29.42,WSW,245,1.0,10.0,83,0.00,,,0.01,Wunderground v.1.15,2013-09-18 10:34:00,
2013-09-18 06:44:00,47.5,42.6,29.43,WSW,250,3.0,10.0,83,0.00,,,0.01,Wunderground v.1.15,2013-09-18 10:44:00,
2013-09-18 06:49:00,47.5,42.3,29.42,WSW,242,4.0,4.0,82,0.00,,,0.01,Wunderground v.1.15,2013-09-18 10:49:00,
2013-09-18 06:54:00,47.5,42.3,29.43,West,271,4.0,10.0,82,0.00,,,0.01,Wunderground v.1.15,2013-09-18 10:54:00,
2013-09-18 06:59:00,47.4,42.5,29.43,WSW,254,2.0,2.0,83,0.00,,,0.01,Wunderground v.1.15,2013-09-18 10:59:00,
2013-09-18 07:04:00,47.4,42.5,29.43,WSW,254,0.0,10.0,83,0.00,,,0.01,Wunderground v.1.15,2013-09-18 11:04:00,
2013-09-18 07:09:00,47.3,42.4,29.43,WSW,257,0.0,10.0,83,0.00,,,0.01,Wunderground v.1.15,2013-09-18 11:09:00,
2013-09-18 07:19:00,47.8,42.6,29.43,SW,229,4.0,10.0,82,0.00,,,0.01,Wunderground v.1.15,2013-09-18 11:19:00,
2013-09-18 07:24:00,48.1,42.5,29.43,West,261,6.0,10.0,81,0.00,,,0.01,Wunderground v.1.15,2013-09-18 11:24:00,
2013-09-18 07:29:00,48.3,42.7,29.43,WSW,249,8.0,10.0,81,0.00,,,0.01,Wunderground v.1.15,2013-09-18 11:29:00,
2013-09-18 07:34:00,48.2,42.6,29.43,West,261,9.0,10.0,81,0.00,,,0.01,Wunderground v.1.15,2013-09-18 11:34:00,
2013-09-18 07:39:00,47.9,42.3,29.43,WSW,238,8.0,8.0,81,0.00,,,0.02,Wunderground v.1.15,2013-09-18 11:39:00,
2013-09-18 07:49:00,47.9,43.0,29.43,WSW,248,4.0,4.0,83,0.00,,,0.02,Wunderground v.1.15,2013-09-18 11:49:00,
2013-09-18 07:54:00,48.0,43.1,29.43,SW,231,4.0,8.0,83,0.00,,,0.02,Wunderground v.1.15,2013-09-18 11:54:00,
2013-09-18 07:59:00,48.1,43.2,29.43,West,268,6.0,10.0,83,0.00,,,0.02,Wunderground v.1.15,2013-09-18 11:59:00,
2013-09-18 08:04:00,48.1,43.2,29.43,WSW,248,8.0,10.0,83,0.00,,,0.02,Wunderground v.1.15,2013-09-18 12:04:00,
2013-09-18 08:09:00,48.5,43.6,29.43,WSW,257,8.0,8.0,83,0.00,,,0.02,Wunderground v.1.15,2013-09-18 12:09:00,
2013-09-18 08:14:00,48.9,43.6,29.43,WSW,240,7.0,9.0,82,0.00,,,0.02,Wunderground v.1.15,2013-09-18 12:14:00,
2013-09-18 08:20:00,49.4,44.1,29.43,WSW,249,7.0,7.0,82,0.00,,,0.02,Wunderground v.1.15,2013-09-18 12:20:00,
2013-09-18 08:25:00,49.9,44.6,29.43,WSW,251,7.0,10.0,82,0.00,,,0.02,Wunderground v.1.15,2013-09-18 12:25:00,
2013-09-18 08:30:00,50.2,44.3,29.43,WSW,255,8.0,10.0,80,0.00,,,0.02,Wunderground v.1.15,2013-09-18 12:30:00,
2013-09-18 08:39:00,51.2,44.9,29.42,WSW,258,8.0,8.0,79,0.00,,,0.02,Wunderground v.1.15,2013-09-18 12:39:00,
2013-09-18 08:44:00,51.7,45.4,29.42,WSW,243,7.0,9.0,79,0.00,,,0.02,Wunderground v.1.15,2013-09-18 12:44:00,
2013-09-18 08:50:00,52.3,46.0,29.42,West,266,8.0,8.0,79,0.00,,,0.02,Wunderground v.1.15,2013-09-18 12:50:00,
2013-09-18 08:55:00,52.9,45.9,29.42,WSW,252,8.0,9.0,77,0.00,,,0.02,Wunderground v.1.15,2013-09-18 12:55:00,
2013-09-18 09:00:00,53.5,46.5,29.42,WSW,249,8.0,8.0,77,0.00,,,0.02,Wunderground v.1.15,2013-09-18 13:00:00,
2013-09-18 09:05:00,54.4,47.3,29.42,SW,234,7.0,10.0,77,0.00,,,0.02,Wunderground v.1.15,2013-09-18 13:05:00,
2013-09-18 09:10:00,55.3,47.5,29.42,WSW,248,5.0,10.0,75,0.00,,,0.02,Wunderground v.1.15,2013-09-18 13:10:00,
2013-09-18 09:19:00,56.7,48.5,29.42,WSW,250,4.0,10.0,74,0.00,,,0.02,Wunderground v.1.15,2013-09-18 13:19:00,
2013-09-18 09:25:00,57.5,48.9,29.42,WSW,238,4.0,10.0,73,0.00,,,0.02,Wunderground v.1.15,2013-09-18 13:25:00,
2013-09-18 09:30:00,57.8,48.5,29.42,WSW,254,4.0,10.0,71,0.00,,,0.02,Wunderground v.1.15,2013-09-18 13:30:00,
2013-09-18 09:35:00,58.2,48.1,29.42,West,269,5.0,10.0,69,0.00,,,0.02,Wunderground v.1.15,2013-09-18 13:35:00,
2013-09-18 09:44:00,59.2,48.6,29.42,West,265,5.0,10.0,68,0.00,,,0.02,Wunderground v.1.15,2013-09-18 13:44:00,
2013-09-18 09:49:00,59.9,49.7,29.42,WSW,240,4.0,4.0,69,0.00,,,0.02,Wunderground v.1.15,2013-09-18 13:49:00,
2013-09-18 09:55:00,61.6,50.5,29.42,West,267,2.0,10.0,67,0.00,,,0.02,Wunderground v.1.15,2013-09-18 13:55:00,
2013-09-18 10:00:00,63.3,51.3,29.42,WNW,290,1.0,1.0,65,0.00,,,0.02,Wunderground v.1.15,2013-09-18 14:00:00,
2013-09-18 10:05:00,64.7,52.2,29.42,WNW,290,1.0,10.0,64,0.00,,,0.02,Wunderground v.1.15,2013-09-18 14:05:00,
2013-09-18 10:14:00,66.8,51.5,29.42,WNW,290,1.0,10.0,58,0.00,,,0.02,Wunderground v.1.15,2013-09-18 14:14:00,
2013-09-18 10:19:00,67.3,52.0,29.41,WNW,302,2.0,2.0,58,0.00,,,0.02,Wunderground v.1.15,2013-09-18 14:19:00,
2013-09-18 10:24:00,67.7,52.4,29.41,WNW,295,1.0,10.0,58,0.00,,,0.02,Wunderground v.1.15,2013-09-18 14:24:00,
2013-09-18 10:34:00,68.8,52.9,29.41,WNW,295,0.0,10.0,57,0.00,,,0.02,Wunderground v.1.15,2013-09-18 14:34:00,
2013-09-18 10:39:00,69.4,51.0,29.41,WNW,295,0.0,10.0,52,0.00,,,0.02,Wunderground v.1.15,2013-09-18 14:39:00,
2013-09-18 10:44:00,70.2,52.3,29.41,WNW,295,0.0,10.0,53,0.00,,,0.02,Wunderground v.1.15,2013-09-18 14:44:00,
2013-09-18 10:49:00,71.0,52.5,29.40,WNW,295,0.0,10.0,52,0.00,,,0.03,Wunderground v.1.15,2013-09-18 14:49:00,
2013-09-18 10:54:00,71.3,52.8,29.40,WNW,295,0.0,10.0,52,0.00,,,0.03,Wunderground v.1.15,2013-09-18 14:54:00,
2013-09-18 11:00:00,71.1,50.4,29.40,WNW,295,0.0,10.0,48,0.00,,,0.03,Wunderground v.1.15,2013-09-18 15:00:00,
2013-09-18 11:09:00,70.3,50.8,29.40,WNW,295,0.0,10.0,50,0.00,,,0.03,Wunderground v.1.15,2013-09-18 15:09:00,
2013-09-18 11:15:00,68.5,50.2,29.39,WNW,286,1.0,10.0,52,0.00,,,0.03,Wunderground v.1.15,2013-09-18 15:15:00,
2013-09-18 11:20:00,68.5,50.7,29.39,WNW,284,1.0,10.0,53,0.00,,,0.03,Wunderground v.1.15,2013-09-18 15:20:00,
2013-09-18 11:25:00,68.1,49.8,29.39,West,269,1.0,10.0,52,0.00,,,0.03,Wunderground v.1.15,2013-09-18 15:25:00,
2013-09-18 11:30:00,69.1,51.8,29.39,West,269,1.0,1.0,54,0.00,,,0.03,Wunderground v.1.15,2013-09-18 15:30:00,
2013-09-18 11:39:00,69.8,49.8,29.39,West,269,1.0,1.0,49,0.00,,,0.03,Wunderground v.1.15,2013-09-18 15:39:00,
2013-09-18 11:45:00,70.2,49.0,29.38,West,269,1.0,10.0,47,0.00,,,0.03,Wunderground v.1.15,2013-09-18 15:45:00,
2013-09-18 11:50:00,70.6,48.2,29.39,West,269,0.0,10.0,45,0.00,,,0.03,Wunderground v.1.15,2013-09-18 15:50:00,
2013-09-18 11:55:00,70.1,48.9,29.38,West,269,0.0,10.0,47,0.00,,,0.03,Wunderground v.1.15,2013-09-18 15:55:00,
2013-09-18 12:00:00,69.9,49.3,29.38,West,260,0.0,10.0,48,0.00,,,0.03,Wunderground v.1.15,2013-09-18 16:00:00,
2013-09-18 12:10:00,71.0,49.7,29.38,West,261,0.0,10.0,47,0.00,,,0.03,Wunderground v.1.15,2013-09-18 16:10:00,
2013-09-18 12:15:00,72.2,47.2,29.38,West,261,1.0,10.0,41,0.00,,,0.03,Wunderground v.1.15,2013-09-18 16:15:00,
2013-09-18 12:20:00,71.9,46.3,29.37,SW,227,1.0,10.0,40,0.00,,,0.03,Wunderground v.1.15,2013-09-18 16:20:00,
2013-09-18 12:25:00,71.3,45.7,29.38,SW,228,1.0,10.0,40,0.00,,,0.03,Wunderground v.1.15,2013-09-18 16:25:00,
2013-09-18 12:30:00,71.0,44.1,29.37,SW,228,1.0,1.0,38,0.00,,,0.03,Wunderground v.1.15,2013-09-18 16:30:00,
2013-09-18 12:35:00,70.4,45.6,29.37,West,267,2.0,2.0,41,0.00,,,0.03,Wunderground v.1.15,2013-09-18 16:35:00,
2013-09-18 12:44:00,71.8,46.2,29.37,West,267,0.0,10.0,40,0.00,,,0.03,Wunderground v.1.15,2013-09-18 16:44:00,
2013-09-18 12:50:00,72.6,47.5,29.37,West,268,0.0,10.0,41,0.00,,,0.03,Wunderground v.1.15,2013-09-18 16:50:00,
2013-09-18 12:55:00,73.5,47.0,29.37,West,279,0.0,10.0,39,0.00,,,0.03,Wunderground v.1.15,2013-09-18 16:55:00,
2013-09-18 13:00:00,74.2,47.6,29.36,NW,309,0.0,10.0,39,0.00,,,0.03,Wunderground v.1.15,2013-09-18 17:00:00,
2013-09-18 13:05:00,74.6,47.3,29.36,NW,311,0.0,10.0,38,0.00,,,0.03,Wunderground v.1.15,2013-09-18 17:05:00,
2013-09-18 13:15:00,75.6,47.5,29.36,NNW,335,0.0,10.0,37,0.00,,,0.03,Wunderground v.1.15,2013-09-18 17:15:00,
2013-09-18 13:20:00,75.8,46.9,29.36,NNW,335,0.0,10.0,36,0.00,,,0.03,Wunderground v.1.15,2013-09-18 17:20:00,
2013-09-18 13:25:00,76.0,48.6,29.36,NNW,330,0.0,10.0,38,0.00,,,0.03,Wunderground v.1.15,2013-09-18 17:25:00,
2013-09-18 13:30:00,74.2,46.2,29.36,West,267,1.0,1.0,37,0.00,,,0.03,Wunderground v.1.15,2013-09-18 17:30:00,
2013-09-18 13:39:00,72.7,46.3,29.35,West,269,1.0,1.0,39,0.00,,,0.03,Wunderground v.1.15,2013-09-18 17:39:00,
2013-09-18 13:49:00,72.0,47.6,29.35,West,269,0.0,10.0,42,0.00,,,0.03,Wunderground v.1.15,2013-09-18 17:49:00,
2013-09-18 13:54:00,72.0,47.0,29.34,West,269,0.0,10.0,41,0.00,,,0.03,Wunderground v.1.15,2013-09-18 17:54:00,
2013-09-18 13:59:00,72.3,47.9,29.34,NE,51,0.0,10.0,42,0.00,,,0.04,Wunderground v.1.15,2013-09-18 17:59:00,
2013-09-18 14:04:00,72.0,45.0,29.34,ESE,112,1.0,10.0,38,0.00,,,0.04,Wunderground v.1.15,2013-09-18 18:04:00,
2013-09-18 14:09:00,71.1,47.5,29.34,ESE,111,1.0,10.0,43,0.00,,,0.04,Wunderground v.1.15,2013-09-18 18:09:00,
2013-09-18 14:14:00,71.7,48.0,29.34,ENE,74,1.0,10.0,43,0.00,,,0.04,Wunderground v.1.15,2013-09-18 18:14:00,
2013-09-18 14:24:00,68.8,53.4,29.34,ESE,121,7.0,13.0,58,0.00,,,0.04,Wunderground v.1.15,2013-09-18 18:24:00,
2013-09-18 14:29:00,68.0,53.6,29.34,East,83,8.0,11.0,60,0.00,,,0.04,Wunderground v.1.15,2013-09-18 18:29:00,
2013-09-18 14:35:00,67.1,53.2,29.34,East,86,10.0,11.0,61,0.00,,,0.04,Wunderground v.1.15,2013-09-18 18:35:00,
2013-09-18 14:40:00,66.8,52.9,29.34,ENE,72,10.0,10.0,61,0.00,,,0.04,Wunderground v.1.15,2013-09-18 18:40:00,
2013-09-18 14:49:00,67.6,54.6,29.33,East,81,4.0,4.0,63,0.00,,,0.04,Wunderground v.1.15,2013-09-18 18:49:00,
2013-09-18 14:54:00,67.7,53.3,29.33,ESE,113,4.0,10.0,60,0.00,,,0.04,Wunderground v.1.15,2013-09-18 18:54:00,
2013-09-18 14:59:00,67.6,53.7,29.33,ENE,73,4.0,10.0,61,0.00,,,0.04,Wunderground v.1.15,2013-09-18 18:59:00,
2013-09-18 15:04:00,67.8,53.9,29.33,ESE,107,4.0,10.0,61,0.00,,,0.04,Wunderground v.1.15,2013-09-18 19:04:00,
2013-09-18 15:09:00,67.3,52.9,29.33,ENE,70,5.0,5.0,60,0.00,,,0.04,Wunderground v.1.15,2013-09-18 19:09:00,
2013-09-18 15:14:00,66.9,53.0,29.33,ENE,61,6.0,6.0,61,0.00,,,0.04,Wunderground v.1.15,2013-09-18 19:14:00,
2013-09-18 15:19:00,66.6,52.7,29.33,SE,133,6.0,10.0,61,0.00,,,0.04,Wunderground v.1.15,2013-09-18 19:19:00,
2013-09-18 15:24:00,66.4,53.4,29.33,ESE,119,7.0,10.0,63,0.00,,,0.04,Wunderground v.1.15,2013-09-18 19:24:00,
2013-09-18 15:30:00,66.6,54.0,29.32,ESE,120,5.0,11.0,64,0.00,,,0.04,Wunderground v.1.15,2013-09-18 19:30:00,
2013-09-18 15:35:00,66.3,54.2,29.32,SE,128,5.0,11.0,65,0.00,,,0.04,Wunderground v.1.15,2013-09-18 19:35:00,
2013-09-18 15:40:00,66.2,54.5,29.32,ESE,112,6.0,10.0,66,0.00,,,0.04,Wunderground v.1.15,2013-09-18 19:40:00,
2013-09-18 15:45:00,66.2,54.1,29.32,SE,131,5.0,10.0,65,0.00,,,0.04,Wunderground v.1.15,2013-09-18 19:45:00,
2013-09-18 15:50:00,66.4,54.3,29.31,ESE,117,4.0,10.0,65,0.00,,,0.04,Wunderground v.1.15,2013-09-18 19:50:00,
2013-09-18 15:55:00,66.3,53.3,29.31,ESE,121,4.0,10.0,63,0.00,,,0.04,Wunderground v.1.15,2013-09-18 19:55:00,
2013-09-18 16:00:00,66.5,54.4,29.31,ESE,123,5.0,5.0,65,0.00,,,0.05,Wunderground v.1.15,2013-09-18 20:00:00,
2013-09-18 16:15:00,66.8,54.7,29.30,SE,126,4.0,10.0,65,0.00,,,0.05,Wunderground v.1.15,2013-09-18 20:15:00,
2013-09-18 16:20:00,66.7,54.6,29.30,SE,128,4.0,4.0,65,0.00,,,0.05,Wunderground v.1.15,2013-09-18 20:20:00,
2013-09-18 16:29:00,67.1,54.5,29.30,SE,128,2.0,10.0,64,0.00,,,0.05,Wunderground v.1.15,2013-09-18 20:29:00,
2013-09-18 16:35:00,67.2,54.6,29.30,SE,130,1.0,10.0,64,0.00,,,0.05,Wunderground v.1.15,2013-09-18 20:35:00,
2013-09-18 16:44:00,67.2,54.2,29.30,SSE,150,2.0,10.0,63,0.00,,,0.05,Wunderground v.1.15,2013-09-18 20:44:00,
2013-09-18 16:49:00,67.1,54.1,29.29,SSE,157,2.0,2.0,63,0.00,,,0.05,Wunderground v.1.15,2013-09-18 20:49:00,
2013-09-18 16:55:00,67.1,54.1,29.29,SSE,162,2.0,10.0,63,0.00,,,0.05,Wunderground v.1.15,2013-09-18 20:55:00,
2013-09-18 17:04:00,66.8,54.2,29.29,SSE,161,2.0,10.0,64,0.00,,,0.05,Wunderground v.1.15,2013-09-18 21:04:00,
2013-09-18 17:14:00,66.8,54.7,29.29,SSE,158,1.0,10.0,65,0.00,,,0.05,Wunderground v.1.15,2013-09-18 21:14:00,
2013-09-18 17:20:00,66.8,55.1,29.29,SSE,157,1.0,1.0,66,0.00,,,0.05,Wunderground v.1.15,2013-09-18 21:20:00,
2013-09-18 17:29:00,67.0,54.8,29.28,SSE,154,1.0,1.0,65,0.00,,,0.05,Wunderground v.1.15,2013-09-18 21:29:00,
2013-09-18 17:34:00,67.1,55.4,29.28,SSE,153,1.0,10.0,66,0.00,,,0.05,Wunderground v.1.15,2013-09-18 21:34:00,
2013-09-18 17:39:00,67.1,54.9,29.28,SSE,153,1.0,1.0,65,0.00,,,0.05,Wunderground v.1.15,2013-09-18 21:39:00,
2013-09-18 17:49:00,66.8,55.1,29.28,SSE,153,2.0,10.0,66,0.00,,,0.05,Wunderground v.1.15,2013-09-18 21:49:00,
2013-09-18 17:54:00,66.7,55.0,29.28,SSE,153,1.0,10.0,66,0.00,,,0.05,Wunderground v.1.15,2013-09-18 21:54:00,
2013-09-18 17:59:00,66.6,54.9,29.28,SSE,153,1.0,1.0,66,0.00,,,0.05,Wunderground v.1.15,2013-09-18 21:59:00,
2013-09-18 18:04:00,66.5,54.8,29.27,SSE,153,0.0,10.0,66,0.00,,,0.05,Wunderground v.1.15,2013-09-18 22:04:00,
2013-09-18 18:09:00,66.4,54.7,29.28,SSE,153,0.0,10.0,66,0.00,,,0.05,Wunderground v.1.15,2013-09-18 22:09:00,
2013-09-18 18:14:00,66.3,54.2,29.28,SSE,153,0.0,10.0,65,0.00,,,0.05,Wunderground v.1.15,2013-09-18 22:14:00,
2013-09-18 18:24:00,66.0,53.9,29.28,SSE,153,0.0,10.0,65,0.00,,,0.05,Wunderground v.1.15,2013-09-18 22:24:00,
2013-09-18 18:29:00,65.9,54.2,29.28,ESE,109,0.0,10.0,66,0.00,,,0.05,Wunderground v.1.15,2013-09-18 22:29:00,
2013-09-18 18:34:00,65.8,54.5,29.28,ESE,109,0.0,10.0,67,0.00,,,0.05,Wunderground v.1.15,2013-09-18 22:34:00,
2013-09-18 18:39:00,65.6,54.3,29.28,ESE,109,0.0,10.0,67,0.00,,,0.05,Wunderground v.1.15,2013-09-18 22:39:00,
2013-09-18 18:44:00,65.4,54.6,29.28,ESE,109,0.0,10.0,68,0.00,,,0.05,Wunderground v.1.15,2013-09-18 22:44:00,
2013-09-18 18:54:00,64.9,54.5,29.27,ESE,122,0.0,10.0,69,0.00,,,0.05,Wunderground v.1.15,2013-09-18 22:54:00,
2013-09-18 18:59:00,64.6,54.2,29.27,ESE,122,0.0,10.0,69,0.00,,,0.05,Wunderground v.1.15,2013-09-18 22:59:00,
2013-09-18 19:04:00,64.3,54.7,29.27,ESE,122,0.0,10.0,71,0.00,,,0.05,Wunderground v.1.15,2013-09-18 23:04:00,
2013-09-18 19:09:00,63.8,54.6,29.27,ESE,122,1.0,10.0,72,0.00,,,0.05,Wunderground v.1.15,2013-09-18 23:09:00,
2013-09-18 19:14:00,63.5,54.3,29.27,ESE,122,1.0,10.0,72,0.00,,,0.05,Wunderground v.1.15,2013-09-18 23:14:00,
2013-09-18 19:25:00,62.7,54.3,29.27,ESE,122,0.0,10.0,74,0.00,,,0.05,Wunderground v.1.15,2013-09-18 23:25:00,
2013-09-18 19:30:00,62.1,53.7,29.27,SE,125,0.0,10.0,74,0.00,,,0.05,Wunderground v.1.15,2013-09-18 23:30:00,
2013-09-18 19:39:00,61.4,53.4,29.27,South,187,3.0,10.0,75,0.00,,,0.05,Wunderground v.1.15,2013-09-18 23:39:00,
2013-09-18 19:44:00,60.9,53.3,29.27,South,187,2.0,10.0,76,0.00,,,0.05,Wunderground v.1.15,2013-09-18 23:44:00,
2013-09-18 19:49:00,60.5,52.9,29.27,South,187,0.0,10.0,76,0.00,,,0.05,Wunderground v.1.15,2013-09-18 23:49:00,
2013-09-18 19:54:00,60.3,52.7,29.27,South,187,0.0,10.0,76,0.00,,,0.05,Wunderground v.1.15,2013-09-18 23:54:00,
2013-09-18 20:04:00,59.6,52.7,29.27,South,187,0.0,10.0,78,0.00,,,0.05,Wunderground v.1.15,2013-09-19 00:04:00,
2013-09-18 20:09:00,59.3,52.4,29.27,South,187,0.0,10.0,78,0.00,,,0.05,Wunderground v.1.15,2013-09-19 00:09:00,
2013-09-18 20:14:00,59.1,52.2,29.27,South,188,1.0,10.0,78,0.00,,,0.05,Wunderground v.1.15,2013-09-19 00:14:00,
2013-09-18 20:19:00,59.1,52.2,29.27,South,188,2.0,2.0,78,0.00,,,0.05,Wunderground v.1.15,2013-09-19 00:19:00,
2013-09-18 20:24:00,59.1,52.2,29.27,South,190,2.0,3.0,78,0.00,,,0.05,Wunderground v.1.15,2013-09-19 00:24:00,
2013-09-18 20:40:00,59.1,52.2,29.28,South,191,2.0,2.0,78,0.00,,,0.05,Wunderground v.1.15,2013-09-19 00:40:00,
2013-09-18 20:45:00,59.0,52.1,29.28,South,191,1.0,10.0,78,0.00,,,0.05,Wunderground v.1.15,2013-09-19 00:45:00,
2013-09-18 20:50:00,59.0,52.1,29.28,South,191,0.0,10.0,78,0.00,,,0.05,Wunderground v.1.15,2013-09-19 00:50:00,
2013-09-18 20:59:00,58.7,52.2,29.29,South,191,0.0,10.0,79,0.00,,,0.05,Wunderground v.1.15,2013-09-19 00:59:00,
2013-09-18 21:05:00,58.7,52.2,29.29,SW,224,3.0,10.0,79,0.00,,,0.05,Wunderground v.1.15,2013-09-19 01:05:00,
2013-09-18 21:14:00,58.6,52.1,29.29,SW,234,6.0,10.0,79,0.00,,,0.05,Wunderground v.1.15,2013-09-19 01:14:00,
2013-09-18 21:19:00,58.4,52.3,29.29,SW,234,5.0,5.0,80,0.00,,,0.06,Wunderground v.1.15,2013-09-19 01:19:00,
2013-09-18 21:30:00,58.4,52.3,29.29,SW,234,3.0,10.0,80,0.00,,,0.06,Wunderground v.1.15,2013-09-19 01:30:00,
2013-09-18 21:35:00,58.6,52.1,29.29,SW,231,5.0,10.0,79,0.00,,,0.06,Wunderground v.1.15,2013-09-19 01:35:00,
2013-09-18 21:45:00,58.3,52.2,29.29,SW,230,6.0,10.0,80,0.00,,,0.06,Wunderground v.1.15,2013-09-19 01:45:00,
2013-09-18 21:50:00,58.0,52.2,29.29,SW,231,5.0,10.0,81,0.00,,,0.06,Wunderground v.1.15,2013-09-19 01:50:00,
2013-09-18 21:59:00,58.6,52.1,29.28,SW,231,6.0,6.0,79,0.00,,,0.06,Wunderground v.1.15,2013-09-19 01:59:00,
2013-09-18 22:04:00,58.7,52.2,29.28,SW,236,6.0,7.0,79,0.00,,,0.06,Wunderground v.1.15,2013-09-19 02:04:00,
2013-09-18 22:09:00,59.1,52.2,29.28,WSW,242,6.0,6.0,78,0.00,,,0.06,Wunderground v.1.15,2013-09-19 02:09:00,
2013-09-18 22:19:00,59.3,52.1,29.28,WSW,245,6.0,10.0,77,0.00,,,0.06,Wunderground v.1.15,2013-09-19 02:19:00,
2013-09-18 22:24:00,58.5,52.0,29.28,WSW,247,7.0,10.0,79,0.00,,,0.06,Wunderground v.1.15,2013-09-19 02:24:00,
2013-09-18 22:29:00,58.0,51.9,29.28,WSW,245,8.0,8.0,80,0.00,,,0.06,Wunderground v.1.15,2013-09-19 02:29:00,
2013-09-18 22:34:00,57.5,51.7,29.28,WSW,244,7.0,10.0,81,0.00,,,0.06,Wunderground v.1.15,2013-09-19 02:34:00,
2013-09-18 22:40:00,57.1,51.7,29.28,WSW,240,7.0,10.0,82,0.00,,,0.06,Wunderground v.1.15,2013-09-19 02:40:00,
2013-09-18 22:49:00,56.9,52.1,29.27,SW,236,6.0,10.0,84,0.00,,,0.06,Wunderground v.1.15,2013-09-19 02:49:00,
2013-09-18 22:54:00,57.0,52.2,29.27,WSW,244,6.0,10.0,84,0.00,,,0.06,Wunderground v.1.15,2013-09-19 02:54:00,
2013-09-18 22:59:00,57.2,52.4,29.27,WSW,250,6.0,10.0,84,0.00,,,0.06,Wunderground v.1.15,2013-09-19 02:59:00,
2013-09-18 23:04:00,57.5,52.4,29.27,WSW,258,6.0,10.0,83,0.00,,,0.06,Wunderground v.1.15,2013-09-19 03:04:00,
2013-09-18 23:10:00,57.8,52.7,29.27,WSW,238,6.0,10.0,83,0.00,,,0.06,Wunderground v.1.15,2013-09-19 03:10:00,
2013-09-18 23:15:00,57.6,52.1,29.27,West,265,6.0,10.0,82,0.00,,,0.06,Wunderground v.1.15,2013-09-19 03:15:00,
2013-09-18 23:25:00,56.6,51.8,29.27,West,265,5.0,10.0,84,0.00,,,0.06,Wunderground v.1.15,2013-09-19 03:25:00,
2013-09-18 23:34:00,56.3,51.8,29.27,West,267,5.0,10.0,85,0.00,,,0.06,Wunderground v.1.15,2013-09-19 03:34:00,
2013-09-18 23:39:00,56.0,51.6,29.27,West,270,5.0,5.0,85,0.00,,,0.06,Wunderground v.1.15,2013-09-19 03:39:00,
2013-09-18 23:44:00,55.8,51.7,29.27,West,273,5.0,10.0,86,0.00,,,0.06,Wunderground v.1.15,2013-09-19 03:44:00,
2013-09-18 23:49:00,55.7,51.6,29.27,West,280,5.0,5.0,86,0.00,,,0.06,Wunderground v.1.15,2013-09-19 03:49:00,